Startpagina
METAR-TAF:

METAR-TAF

Vliegvelden :

Fort Morgan, Colorado, Verenigde Staten

breedte: 40-20-02N, lengte: 103-48-15W, hoogte: 1393 m

Actueel weer

Dit bericht is 21 minuten geleden gemaakt, om 06:15 UTC
Wind 12 kt uit het oostzuidoosten
Temperatuur -12°C
Vochtigheid 78%
Druk 1019 hPa
Zicht: 16.1 km

METAR: KFMM 190615Z AUTO 12012KT 10SM M12/M15 A3008 RMK AO2 T11161153

Tijdstip: 23:36 (06:36 UTC)


TAF: ontbreekt

Waarnemingen en weersverwachtingen van meer dan 4000 vliegvelden (METAR en TAF).

De beschikbare stations zijn de gele en rode punten op de kaart.

Ga met uw muis naar het station om de naam te zien.

Klik dan om waarnemingen en weersverwachtingen te zien.

kaart wijzigen: klik op de groene knoppen met een zwart kruis om in te zoomen, op de groene knop met een streepje om uit te zoomen of op de groene pijlen voor aangrenzende kaarten.


METAR-TAF: